Starlink 30792

operational
NORAD ID: 58220 Int'l Des: 2023-170 Owner: SPXS Country: US Constellation: starlink
LEOCIRCULAR

关于 Starlink 30792

正在加载描述...

实时位置

正在加载3D地球...

即将过境

高度历史

Altitude vs Time

uPlot chart will show altitude changes over time

两行轨道根数

1 58220U 23170Q 25302.99791474 .00000231 00000-0 32187-4 0 9993
2 58220 43.0015 185.7517 0001096 273.8140 86.2577 15.02532611110628
Epoch: Oct 29, 2025 • Age: 27 hours

当前状态

高度 562.7 km
速度 7.59 km/s
星下点 41.99°N, 162.27°E
发射日期 Nov 4, 2023
运行时间 1.9 years
类型 internet

技术详情

分类 Payload
质量 730.00 kg
干质量 700.00 kg
总质量 730.00 kg
长度 0.30 m
直径 4.10 m
跨度 29.00 m
形状 Box + pan
制造商 SPXS
平台类型 Starlink V2M
阶段状态 In Orbit
所有者/国家 SPXS/US

大型星座

Loading constellations...